STARLINK-2535, 48295

Orbit data source: Space-Track

STARLINK-2535, 48295 is a payload satellite owned by SpaceX/Seattle (US) in LEO that was launched on Thu, 29 Apr 2021 UTC via an FALCON 9 launch vehicle from the Air Force Eastern Test Range (AFETR). Payload-class satellites include a variety of spacecraft equipped with specific instruments for various scientific and technological missions. These include communications satellites like Starlink; space stations such as the ISS; scientific satellites like the Hubble; Earth observation satellites from companies like Planet Labs, Umbra, and HawkEye 360; GPS; miniature CubeSats for education and research; and military/defense satellites.

Loading next visibility...
Identifier
48295, 2021-036V
Orbit
LEO
Country
Flag of USUS
Related business
Manufacturer
SpaceX/Seattle
Mission
Operational Commercial Communications
Bus & Motor
STARLINK, Unknown motor
Mass
260 kg wet, ~248 kg dry
Launch date (UTC)
2021-04-29 (4 years ago)
Launch vehicle
FALCON 9
Launch site
Air Force Eastern Test Range (AFETR)
Object type
Payload
Rocket body
Debris
Shape & HBR
Box + 1 Pan, 10.1 m
Radar Cross Section
13.562 m², Large (>1 m²)

Expand to show TLE details & history
Last TLE update: 21 hours ago

TLE from 21 hours ago
0 STARLINK-2535
1 48295U 21036V   25290.64304522  .00002375  00000-0  17823-3 0  9995
2 48295  53.0554   3.7782 0001273  99.9385 260.1748 15.06404768246758
Epoch: 2025-10-17T15:25Z
TLE epoch observation values (Epoch: 2025-10-17T15:25:59.107Z)
Latitude
0.00003°
Longitude
105.89647°
Altitude
548.227 km
Speed
7.589 km/s
True Right ascension
00h 15m 06s
True Declination
0° 00' 00"
Sunlit
Object was in full shadow at epoch
Visualization orbit readout
Latitude
Unknown
Longitude
Unknown
Altitude
Unknown
Speed
Unknown
Apparent Right ascension
Unknown
Apparent Declination
Unknown
Sunlit
N/A
Visualization observer readout
Local Sidereal Time
07:43:32
Azimuth
Unknown
Elevation
Unknown
Doppler factor
Unknown
Orbital elements
Apogee altitude
548.349 km
Perigee altitude
546.586 km
Semi-major axis
6,925.605 km
Eccentricity
0.00013
Inclination
53.0554°
RAAN
3.7782°
Arg. of periapsis
99.9385°
True anomaly
260.16043°
Mean anomaly
260.1748°
Eccentric anomaly
260.16761°
Mean motion
3.76579 °/min
Orbital period
95.6 mins
BSTAR
0.00017823
Loading maneuver chart data...
Computing Atmospheric mass density...
Loading historical data...
Loading historical data...
Loading historical data...
Loading historical data...
Loading historical data...
Loading historical data...
Loading historical data...

Documentation

Showing up to 5 results
|